Погода в Тамбове

Погода в Тамбове : погода сейчас, прогноз погоды и архив. Всё, что Вы хотите узнать о погоде в Тамбове!

Поиск расширенной информации на нашем сайте:

Другие новости

Новости СМИ2

Главная страница сайта

Новости сайта

03.07.2017

Напоминаем, что на нашем специализированном сайте Метеоцентр.Азия вы можете получить высокодетализированные автоматические прогнозы погоды по пунктам России, СНГ и мира в авиационном формате (включающие направление и скорость ветра, видимость, явления погоды, количество и форму облачности, нижнюю и верхнюю границу облачности).


Погода в Тамбове - сегодня

Время (UTC), дата Ветер
(°,м/с) 
Видим.   Явления Облачность Т
(°С)
Тd
(°С)
f(%) Тe
(°С)
Pmin
(гПа)
dP
(гПа)
Po
(мм)
O2
(г/м3)
Тmin Tmax R s Состояние
почвы
06 17.06.18 350 (С) 10 км    ясно 
+20.1 +7.4 44 +20  1019.3  -0.4  753  281           
09 17.06.18 070 (В) 10 км    3/3 1000 м 
[Cu hum]
+23.2 +4.1 29 +23  1018.3  -0.9  752  279           
12 17.06.18 нст () 10 км    ясно 
+24.7 +4.3 27 +25  1016.8  -1.4  751  277           
15 17.06.18 340 (С) 10 км    ясно 
+24 +5.1 29 +24  1016.2  -0.7  751  277    +25.2       
18 17.06.18 тихо ()   10 км    ясно 
+19.1 +7.3 46 +19  1016.6  0.2  751  282           
21 17.06.18 тихо ()   10 км    ясно 
+11.2 +7.4 77 +11  1017.1  0.1  751  289           
00 18.06.18 тихо ()   10 км    ясно 
+8.9 +6.7 86 +9  1017.2  751  292           
06 18.06.18 340 (С) 10 км    3/0 верхняя 
[Ci sp]
+22.4 +8.9 42 +22  1016  -0.6  750  278           
09 18.06.18 350 (С) 10 км    8/6 1500 м верхняя 
[Cu hum|Ci sp]
+26.7 +9.3 33 +27  1014.9  -0.9  750  274           
12 18.06.18 360 (С) 10 км    8/4 1000 м верхняя 
[Cu hum|Ci sp]
+25 +10.5 40 +27  1014.3  -0.7  749  275           
18 18.06.18 нст () 10 км    3/3 1000 м 
[Sc diur, vesp]
+20.4 +11 55 +23  1013.9  0.2  749  279           
21 18.06.18 тихо ()   10 км    5/0 средняя 
[Ac trans]
+16.3 +11.5 73 +20  1014.4  0.3  749  283           
00 19.06.18 тихо ()   10 км    8/0 средняя 
[Ac trans]
+13.8 +12.3 91 +18  1014.7  0.2  749  285           
06 19.06.18 350 (С) 10 км    ясно 
+24.8 +11.9 44 +29  1014.5  749  275           
09 19.06.18 010 (С) 10 км    8/8 1000 м 
[Cu hum]
+26.6 +10.6 37 +29  1013.5  -0.9  749  273           
12 19.06.18 250 (З) 10 км    9/6 1000 м средняя, верхняя 
[Cu hum|Ac trans|Ci sp]
+28.7 +8.5 28 +29  1012.3  -1  748  271           
18 19.06.18 230 (ЮЗ) 10 км    8/0 средняя, верхняя 
[Ac trans|Ci sp]
+22.7 +10.2 45 +24  1011.5  747  276           
21 19.06.18 140 (ЮВ) 10 км    6/0 верхняя 
[Ci fib]
+17.7 +11.4 67 +22  1011.5  -0.2  747  281           
00 20.06.18 150 (ЮВ) 10 км    8/0 средняя, верхняя 
[Ac trans|Ci sp]
+15.8 +12.5 81 +22  1010.6  -1  746  282           
06 20.06.18 250 (З) 10 км    8/0 средняя 
[Ac trans]
+22 +16.4 71 +33  1009.5  -0.2  746  274           
18 20.06.18 290 (З) 2{11}  10 км    ясно 
+18.7 +4.5 39 +20  1010.4  1.2  746  281           
21 20.06.18 тихо ()   10 км    ясно 
+14.5 +7.1 61 +15  1011.8  1.2  747  285           
00 21.06.18 тихо ()   10 км    ясно 
+11.4 +7.4 76 +11  1012.7  0.6  747  288           
03 21.06.18 тихо ()   10 км    ясно 
+15.6 +9.9 69 +17  1013.7  1.2  748  283  +10.7         
06 21.06.18 280 (З) 10 км    ясно 
+21.8 +6.2 36 +22  1013.7  0.3  749  278           
Время (UTC), дата Ветер
(°,м/с) 
Видим.   Явления Облачность Т
(°С)
Тd
(°С)
f(%) Тe
(°С)
Pmin
(гПа)
dP
(гПа)
Po
(мм)
O2
(г/м3)
Тmin Tmax R s Состояние
почвы

Для получения пояснительной информации подведите курсор к названию столбца.

ПОГОДА в Тамбове - архив

Всё, что Вы хотите узнать о погоде в Тамбове - удобно и подробно!

Выберите нужную дату (начиная с 1 января 2015* года) и нажмите кнопку "Найти".
Будут отображены архивные сводки погоды по пункту Тамбов, начиная с указанной даты.


Отображать данные в формате CSV (для использования в таблицах Excel)


Внимание! Наш архив погоды предназначен исключительно для личного некоммерческого использования в познавательных целях. Если Вам необходимы официальные справки о состоянии погоды (для производственных, юридических, коммерческих и т.п. целей), обращайтесь в органы Росгидромета.

*Примечание: данная дата относится к архиву по метеостанциям СССР (Россия, СНГ, Балтия).
Архив по метеостанциям Зарубежной Европы и Азии (кроме Китая) хранится 10 дней, по другим регионам земного шара (Китай, Африка, Америка, Австралия, Океания) - 1 день.

Тамбов - район местоположения метеостанции


Название, широта, долгота, высота метеостанции:
Тамбов 52.8°ш. 41.3°д. 128 м над ур. моря [Российская Федерация]

Дополнительная информация

В oтличие oт бoльшинства пoгoдных сайтoв мы публикуем пoдрoбную метеoинфoрмацию в детальнoм прoфессиoнальнoм фoрмате.

Характеристики температуры и влажнoсти вoздуха измеряются на высoте 2 м в тени вдали oт зданий и деревьев.
Скoрoсть ветра измеряется на высoте 10 м (на урoвне рoста челoвека скoрoсть ветра ниже в 1.5-2 раза). Если метеoстанция нахoдится в гoрoде или в лесу, тo скoрoсть ветра занижена на 2-4 м/с пo сравнению с oткрытым местoм. Скoрoсть ветра над акватoриями крупных рек и oзёр, а также на вершинах хoлмoв на 2-5 м/с выше, чем в oбычных услoвиях.
Атмoсфернoе давление в разных тoчках местнoсти мoжет значительнo oтличаться oт давления на метеoстанции, в зависимoсти oт услoвий рельефа (при пoдъёме на 10 м давление пoнижается примернo на 1 мм рт.ст.).